Tracking 28052 objects as of 25-Sep-2023
HD Live streaming from Space Station
objects crossing your sky now

COSMOS 1818 COOLANT

Track COSMOS 1818 COOLANT now!
10-day predictions


NORAD ID: 36935
Int'l Code: 1987-011P
Perigee: 767.3 km
Apogee: 789.7 km
Inclination: 65.0 °
Period: 100.3 minutes
Semi major axis: 7149 km
RCS: 0.0035 m2 (small)
Launch date: February 1, 1987
Source: Commonwealth of Independent States (former USSR) (CIS)
Launch site: TYURATAM MISSILE AND SPACE COMPLEX (TTMTR)

Note: This is SATELLITE DEBRIS
Your satellite tracking list
Your tracking list is empty




NASA's NSSDC Master Catalog

Two Line Element Set (TLE):
1 36935U 87011P   23253.98437343  .00001454  00000-0  53205-3 0  9991
2 36935  65.0093 147.6396 0015651 287.9419  71.9961 14.36111853196344
Source of the keplerian elements: AFSPC